SCP
0 0 0 0 0 0 0 1 1 1 1 1 1 1 1 1 1 1 1 1 1 1 1 1 1 1 1 1 1 1 1 1 1 1 0 0 0 0 0 0 0 0 0
0 0 0 0 0 0 0 1 1 1 1 1 1 1 1 1 1 1 1 1 1 1 1 1 1 1 1 1 1 1 1 1 1 1 0 0 0 0 0 0 0 0 0
0 0 0 0 0 0 0 0 1 1 1 1 1 1 1 1 1 1 1 1 1 1 1 1 1 1 1 1 1 1 1 1 1 1 0 0 0 0 0 0 0 0 0
0 0 1 1 1 0 0 0 0 1 1 1 1 1 1 1 1 1 1 1 1 1 1 1 1 1 1 1 1 1 1 1 1 1 0 0 0 0 0 0 0 0 0
0 0 1 1 0 0 0 0 0 0 0 0 0 0 0 1 1 1 1 1 1 1 1 1 1 1 1 1 1 1 1 1 1 1 0 0 0 0 0 0 0 0 0
0 0 0 0 0 0 0 0 0 0 0 0 0 0 0 0 1 1 1 1 1 1 1 1 1 1 1 1 1 1 1 1 1 1 0 0 0 0 0 0 0 0 0
0 0 0 0 0 0 0 0 0 0 0 0 0 0 0 0 0 0 1 1 1 1 1 1 1 1 1 1 1 1 1 1 1 1 0 0 0 0 0 0 0 0 0
0 0 0 0 0 0 0 0 0 0 0 0 0 0 0 0 0 0 0 0 1 1 1 1 1 1 1 1 1 1 1 1 1 1 0 0 0 0 0 0 0 0 0
0 0 0 0 0 0 0 0 0 0 0 0 0 0 0 0 0 0 0 0 0 1 1 1 1 1 1 1 1 1 1 1 1 1 1 0 0 0 0 0 0 0 0
0 0 0 0 0 0 0 0 0 0 0 0 0 0 0 0 0 0 0 0 0 0 1 1 1 1 1 1 1 1 1 1 1 1 1 0 0 0 0 0 0 0 0
0 0 0 0 0 0 0 0 0 0 0 0 0 0 0 0 0 0 0 0 0 0 0 1 1 1 1 1 1 1 1 1 1 1 1 1 1 1 0 0 0 0 0
0 0 0 0 0 0 0 0 0 0 0 0 0 0 0 0 0 0 0 0 0 0 0 1 1 1 1 1 1 1 1 1 1 1 1 1 1 1 1 0 0 0 0
0 0 0 0 0 0 0 0 0 0 0 0 0 0 0 0 0 0 0 0 0 0 0 1 1 1 1 1 1 1 1 0 1 1 1 1 1 1 1 1 1 1 1
0 0 0 0 0 0 0 0 0 0 0 0 0 0 0 0 0 0 0 0 0 0 0 0 1 1 1 1 1 1 1 0 0 0 1 1 1 1 1 1 1 1 1
0 0 0 0 0 0 0 0 0 0 0 0 0 0 0 0 0 0 0 0 0 0 0 0 0 1 1 1 1 1 1 1 1 0 1 1 1 1 1 1 1 1 1
0 0 0 0 0 0 0 0 0 0 0 0 0 0 0 0 0 0 0 0 0 0 0 0 0 0 0 0 0 1 1 1 1 1 1 1 1 1 1 1 1 1 1
0 0 0 0 0 0 0 0 0 0 0 0 0 0 0 0 0 0 0 0 0 0 0 0 0 0 0 0 0 0 0 1 1 1 1 1 1 1 1 1 1 1 1
0 0 0 0 0 0 0 0 0 0 0 0 0 0 0 0 0 0 0 0 0 0 0 0 0 0 0 0 0 0 0 0 1 1 1 0 0 1 1 1 1 1 1
0 0 0 0 0 0 0 0 0 0 0 0 0 0 0 0 0 0 0 0 0 0 0 0 0 0 0 0 0 0 0 0 1 1 1 0 0 0 0 1 1 1 1
0 0 0 0 0 0 0 0 0 0 0 0 0 0 0 0 0 0 0 0 0 0 0 0 0 0 0 0 0 0 0 0 0 1 1 0 0 0 0 0 0 1 1
0 0 0 0 0 0 0 0 0 0 0 0 0 0 0 0 0 0 0 0 0 0 0 0 0 0 0 0 0 0 0 0 0 0 0 0 0 0 0 0 0 0 0
0 0 0 0 0 0 0 0 0 0 0 0 0 0 0 0 0 0 0 0 0 0 0 0 0 0 0 0 0 0 0 0 0 0 0 0 0 0 0 0 0 0 0
0 0 0 0 0 0 0 0 0 0 0 0 0 0 0 0 0 0 0 0 0 0 0 0 0 0 0 0 0 0 0 0 0 0 0 0 0 0 0 0 0 0 0
0 0 0 0 0 0 0 0 0 0 0 0 0 0 0 0 0 0 0 0 0 0 0 0 0 0 0 0 0 0 0 0 0 0 0 0 0 0 0 0 0 0 0
0 0 0 0 0 0 0 0 0 0 0 0 0 0 0 0 0 0 0 0 0 0 0 0 0 0 0 0 0 0 0 0 0 0 0 0 0 0 0 0 0 0 0
0 0 0 0 0 0 0 0 0 0 0 0 0 0 0 0 0 0 0 0 0 0 0 0 0 0 0 0 0 0 0 0 0 0 0 0 0 0 0 0 0 0 0
Wind_Speed
2 3 7 8 8 7 7 7 7 7 6 6 6 6 6 6 5 5 5 4 4 4 4 4 4 4 4 4 4 4 4 4 4 4 4 4 4 4 4 5 5 4 7
4 4 8 8 8 7 6 6 6 6 5 5 4 4 4 4 4 3 3 3 3 2 2 2 2 2 2 2 2 2 2 2 2 2 2 2 2 2 4 5 5 3 6
6 4 6 8 7 7 6 6 5 5 4 4 3 3 2 2 2 2 2 1 1 1 1 1 2 1 1 1 1 1 1 1 1 2 2 2 1 1 3 4 5 5 6
6 5 5 8 7 6 6 5 5 4 4 3 2 2 1 1 1 0 0 0 1 1 2 2 2 2 2 2 1 1 1 1 2 2 2 1 1 2 3 4 4 5 5
6 4 5 8 7 6 6 5 4 3 3 2 2 1 1 1 1 1 2 2 3 3 3 3 3 3 3 3 3 2 2 2 2 2 2 2 1 2 4 4 4 5 5
5 4 4 7 6 6 5 4 3 2 2 1 1 1 2 2 2 3 3 4 4 5 5 5 5 5 5 4 4 3 3 2 2 1 2 2 1 3 4 5 4 4 5
5 3 3 7 6 5 4 3 2 1 1 1 2 2 2 3 4 5 5 5 6 6 6 6 6 6 6 6 5 5 4 3 0 0 1 2 2 5 5 5 6 5 5
5 4 3 6 6 5 4 3 1 1 1 1 2 2 3 4 5 5 6 6 6 6 6 6 6 7 6 7 6 6 5 3 1 0 1 2 4 6 6 5 6 6 6
4 3 2 1 2 3 3 2 1 1 1 2 3 3 4 5 5 6 6 6 7 6 6 6 6 7 7 7 7 6 5 3 1 1 2 2 5 7 6 6 7 7 6
3 3 2 1 1 0 0 2 1 1 2 3 4 5 5 5 6 7 6 7 7 7 6 6 6 7 7 6 6 5 4 2 1 1 1 3 6 6 7 7 7 7 6
3 2 3 2 2 1 1 2 2 3 4 5 5 6 5 3 4 4 6 6 6 6 6 6 6 7 6 4 5 4 2 1 1 1 2 5 7 7 7 7 7 7 7
5 4 4 4 3 2 1 0 1 2 2 3 2 3 2 2 3 4 6 6 6 6 5 5 6 5 3 1 2 2 0 1 1 1 2 7 7 7 8 7 8 8 8
5 4 4 4 3 3 1 1 0 1 1 2 2 2 2 2 2 3 2 3 4 4 3 4 4 2 1 1 1 1 2 1 1 1 3 6 7 7 8 8 8 8 8
5 5 4 4 3 2 2 1 1 0 0 1 1 2 1 1 2 2 2 2 2 1 2 2 1 2 1 1 2 2 2 1 1 1 3 5 6 7 8 8 8 8 9
5 4 4 4 4 3 2 1 1 1 1 1 1 1 1 1 1 2 2 2 2 2 1 1 1 2 1 2 2 2 2 2 2 2 2 4 4 5 6 7 8 8 8
6 5 4 4 4 3 2 2 1 1 1 1 1 1 2 1 1 1 2 2 2 2 2 1 2 1 1 1 2 2 2 2 2 2 2 2 4 3 4 5 7 8 8
6 5 4 5 4 3 3 2 2 1 1 1 1 2 2 2 1 1 2 2 2 2 2 1 1 1 1 1 1 1 1 2 2 2 1 1 1 2 2 3 4 5 6
6 5 5 5 5 4 3 2 2 2 2 1 1 1 2 2 2 1 2 2 3 2 2 1 1 1 1 1 1 1 1 1 1 1 1 0 0 0 1 1 2 3 5
7 7 6 5 5 4 3 2 2 2 1 1 1 1 2 2 2 2 2 2 3 2 2 2 1 0 0 1 1 0 0 1 1 0 0 0 0 0 0 0 1 2 3
7 6 6 5 4 4 3 2 2 2 1 1 1 1 2 2 2 2 2 3 3 2 2 2 1 1 0 1 0 1 1 1 1 1 1 0 0 0 0 1 1 1 3
7 7 7 6 5 4 2 2 2 1 0 1 1 1 2 2 2 2 2 3 3 2 2 3 1 1 1 1 1 2 2 2 1 1 1 1 0 1 0 1 1 1 1
8 8 7 7 6 5 3 2 2 2 1 1 1 1 2 2 2 2 2 2 2 2 3 3 2 1 1 1 1 1 1 2 2 2 1 0 1 1 0 0 1 1 1
8 9 8 7 6 5 4 3 2 2 2 1 1 2 2 2 2 2 2 2 2 2 2 2 2 1 0 1 1 2 2 1 1 2 2 1 1 1 1 0 1 1 2
9 7 7 7 6 5 5 4 4 3 2 2 1 1 2 2 2 2 2 2 2 2 2 3 2 1 1 1 1 1 1 1 1 1 2 2 2 2 2 1 1 1 1
7 7 6 6 5 5 4 5 4 3 2 1 1 1 2 2 2 2 1 2 2 2 2 3 2 2 1 1 0 0 1 1 1 2 1 1 2 2 2 2 2 1 1
5 6 6 6 5 5 5 5 5 5 3 2 1 1 2 2 2 2 1 1 2 2 2 2 2 2 1 1 1 1 1 1 1 1 2 1 1 2 2 2 2 2 1
Wind_Direction
179 185 158 137 129 122 116 114 113 111 110 109 108 106 110 114 114 114 118 118 116 115 111 103 95 91 96 96 92 86 84 84 87 89 87 87 89 95 93 89 80 64 77
150 160 152 139 132 125 119 115 112 111 107 106 106 105 105 107 112 119 122 119 122 126 125 122 116 107 102 101 96 84 74 67 66 73 69 68 92 109 113 111 103 89 84
131 137 142 140 134 128 124 119 112 104 100 99 98 101 100 99 102 109 119 124 137 163 166 168 173 175 173 150 122 92 52 28 24 31 44 20 348 151 139 132 122 106 96
131 129 141 143 136 132 126 118 111 104 98 92 85 79 72 64 65 36 327 270 258 251 243 237 225 220 228 232 240 269 316 332 339 8 28 348 299 199 168 151 137 127 113
129 129 148 146 141 137 130 123 115 106 92 79 61 41 24 353 325 307 294 285 276 270 266 260 253 246 248 247 248 262 290 312 327 15 11 343 309 242 188 175 160 145 134
134 137 155 151 147 141 134 126 113 97 74 51 23 0 345 334 323 317 305 294 287 282 276 271 265 257 259 260 257 257 266 286 350 15 346 322 288 249 207 188 180 164 151
149 149 159 157 151 147 142 137 127 100 54 19 2 352 336 322 317 312 307 304 297 289 281 279 277 267 263 264 263 261 264 272 218 86 322 301 272 254 224 200 190 180 169
157 155 159 168 161 161 159 157 148 117 65 6 351 343 333 326 321 314 307 302 298 293 288 283 282 277 274 274 268 263 261 264 248 341 294 276 263 253 232 215 203 192 184
149 150 156 159 170 178 180 183 191 209 309 332 336 333 329 326 323 319 312 305 301 293 290 288 278 275 275 276 268 259 261 252 185 216 277 270 267 255 237 217 206 198 193
151 160 167 167 158 161 314 260 251 293 317 333 339 340 344 346 340 332 327 315 309 300 295 296 287 278 274 275 272 264 265 274 228 233 258 267 269 257 239 214 204 201 194
192 190 187 194 206 216 261 289 326 337 352 358 354 354 8 358 343 330 326 320 319 311 305 306 301 291 280 278 273 267 271 190 216 243 251 264 264 256 241 216 206 203 194
207 209 200 200 207 213 243 11 351 358 7 7 358 359 1 351 337 343 338 343 341 336 333 329 326 320 314 312 284 286 258 220 212 248 260 267 262 253 233 216 209 204 196
206 205 195 198 199 198 209 214 324 4 7 4 3 5 9 10 354 358 354 349 349 350 350 345 349 343 327 274 249 234 235 237 223 245 269 274 269 253 232 217 210 207 200
197 206 196 187 182 190 183 182 163 137 48 28 5 18 37 23 7 354 352 335 337 331 329 332 316 308 292 267 240 235 240 242 247 246 264 280 275 255 236 220 212 208 204
197 202 196 181 177 171 161 179 139 137 116 77 29 25 54 50 12 357 343 338 333 329 323 315 308 303 293 274 246 229 237 246 253 256 274 296 288 263 237 224 217 210 205
199 196 184 174 173 161 160 160 141 133 128 82 43 29 54 64 34 6 352 344 337 328 312 295 290 284 278 268 264 252 250 252 246 242 253 285 293 280 249 230 223 214 207
191 181 176 173 161 157 157 160 135 136 117 90 48 30 41 44 35 20 355 340 328 322 319 311 308 301 285 276 269 264 251 241 236 237 239 243 288 276 250 238 229 216 210
172 169 180 167 152 157 155 144 129 124 113 90 48 24 24 27 32 26 2 339 329 330 333 320 312 314 315 312 295 282 262 256 246 237 215 204 216 269 264 250 230 214 210
173 167 168 154 154 157 144 119 106 102 98 72 43 22 12 17 26 30 2 338 341 347 347 330 353 283 287 308 278 267 319 298 289 279 35 183 182 130 84 247 222 207 200
165 163 161 151 151 136 111 90 69 66 49 31 22 5 10 10 16 20 7 356 360 4 356 353 344 346 307 300 13 60 23 345 360 20 355 4 270 109 138 142 143 201 201
158 164 165 159 162 147 132 133 125 159 286 329 328 348 5 6 9 17 11 3 7 8 345 341 349 8 1 8 65 37 10 13 29 18 16 17 36 70 87 122 128 135 176
172 173 171 173 172 175 160 150 150 150 186 251 310 337 357 5 1 10 18 1 359 358 358 1 10 6 2 29 92 93 29 1 357 18 29 32 10 47 72 106 128 143 142
181 180 182 181 179 178 155 117 88 64 38 10 340 326 333 347 359 11 5 358 357 6 348 343 1 36 0 355 52 129 142 203 323 1 15 16 17 26 11 32 111 144 154
190 180 177 176 177 175 163 160 153 158 185 227 243 282 309 330 346 357 357 354 356 359 350 334 14 12 85 43 2 36 109 153 129 60 359 359 20 31 17 17 42 61 108
179 175 174 171 176 175 173 172 161 165 193 216 249 293 310 323 331 336 348 352 352 349 350 355 5 22 49 91 69 47 59 56 85 132 111 353 14 17 14 18 43 42 50
172 169 168 172 182 179 176 175 176 179 185 195 232 269 298 310 314 320 336 349 336 334 341 348 3 25 32 59 58 61 108 122 139 123 126 93 44 7 12 27 40 37 46